VULCN41 KBHM-KBHM

Flight info

Callsign VULCN41
Flight time 0h 18m
Altitude 4000
Route KBHM/06 DCT VUZ DCT KBHM/ILS 06
Aircraft K35R/H-SDE2E3FGHIJ1RWXYZ/LB1

Departure

Time 2026-04-26 03:46
Airport Birmingham-Shuttlesworth International Airport (KBHM)

Arrival

Time 2026-04-26 04:04
Airport Birmingham-Shuttlesworth International Airport (KBHM)
Time Latitude Longitude Altitude Speed Heading
2026-04-26 03:34 33.56765 -86.75464 676 ft 0 kts 324°
2026-04-26 03:40 33.56793 -86.75484 674 ft 9 kts 339°
2026-04-26 03:40 33.56822 -86.75468 672 ft 7 kts 53°
2026-04-26 03:40 33.56854 -86.75416 673 ft 8 kts 53°
2026-04-26 03:41 33.56889 -86.75355 675 ft 9 kts 65°
2026-04-26 03:41 33.56877 -86.75292 672 ft 8 kts 135°
2026-04-26 03:41 33.56832 -86.75242 674 ft 9 kts 137°
2026-04-26 03:41 33.56776 -86.75176 675 ft 15 kts 134°
2026-04-26 03:42 33.56703 -86.75088 673 ft 15 kts 135°
2026-04-26 03:42 33.56628 -86.75003 674 ft 14 kts 132°
2026-04-26 03:42 33.56602 -86.74904 673 ft 12 kts 94°
2026-04-26 03:42 33.56628 -86.74817 675 ft 11 kts 55°
2026-04-26 03:43 33.56671 -86.74743 674 ft 11 kts 56°
2026-04-26 03:43 33.56731 -86.74636 674 ft 19 kts 56°
2026-04-26 03:43 33.56807 -86.74506 675 ft 19 kts 54°
2026-04-26 03:43 33.56884 -86.74372 673 ft 20 kts 56°
2026-04-26 03:44 33.56962 -86.74236 675 ft 20 kts 55°
2026-04-26 03:44 33.57041 -86.74098 673 ft 20 kts 54°
2026-04-26 03:44 33.57122 -86.73960 670 ft 20 kts 55°
2026-04-26 03:44 33.57194 -86.73843 673 ft 12 kts 35°
2026-04-26 03:45 33.57262 -86.73855 671 ft 11 kts 326°
2026-04-26 03:45 33.57315 -86.73912 671 ft 13 kts 300°
2026-04-26 03:45 33.57258 -86.74071 672 ft 44 kts 236°
2026-04-26 03:45 33.56898 -86.74696 674 ft 135 kts 235°
2026-04-26 03:46 33.56228 -86.75849 719 ft 196 kts 236°
2026-04-26 03:46 33.55446 -86.77246 1520 ft 210 kts 237°
2026-04-26 03:46 33.54600 -86.78783 2225 ft 231 kts 238°
2026-04-26 03:47 33.52830 -86.82289 3109 ft 255 kts 255°
2026-04-26 03:47 33.53095 -86.84274 3770 ft 256 kts 315°
2026-04-26 03:47 33.54805 -86.85155 3623 ft 295 kts 356°
2026-04-26 03:47 33.56926 -86.85217 3772 ft 320 kts 359°
2026-04-26 03:48 33.59224 -86.85218 4080 ft 336 kts
2026-04-26 03:48 33.61559 -86.85223 4546 ft 334 kts 357°
2026-04-26 03:48 33.63833 -86.85698 4988 ft 332 kts 342°
2026-04-26 03:48 33.65990 -86.86860 4743 ft 347 kts 333°
2026-04-26 03:49 33.68239 -86.87940 3913 ft 357 kts 354°
2026-04-26 03:49 33.70434 -86.86777 3124 ft 368 kts 56°
2026-04-26 03:49 33.70683 -86.83734 2376 ft 376 kts 101°
2026-04-26 03:49 33.70096 -86.80884 3855 ft 339 kts 103°
2026-04-26 03:50 33.69568 -86.78403 4486 ft 278 kts 102°
2026-04-26 03:50 33.69159 -86.76318 4400 ft 242 kts 101°
2026-04-26 03:50 33.68790 -86.74462 3868 ft 216 kts 102°
2026-04-26 03:50 33.68435 -86.72723 3245 ft 202 kts 102°
2026-04-26 03:51 33.68063 -86.71185 2860 ft 189 kts 106°
2026-04-26 03:51 33.67648 -86.69707 2834 ft 183 kts 108°
2026-04-26 03:51 33.67217 -86.68218 2923 ft 194 kts 108°
2026-04-26 03:51 33.66738 -86.66668 3268 ft 198 kts 109°
2026-04-26 03:52 33.66233 -86.65148 3252 ft 202 kts 111°
2026-04-26 03:52 33.65602 -86.63625 3176 ft 207 kts 130°
2026-04-26 03:52 33.64302 -86.63051 3119 ft 209 kts 190°
2026-04-26 03:52 33.63125 -86.64060 2749 ft 220 kts 232°
2026-04-26 03:53 33.62198 -86.65522 2406 ft 214 kts 236°
2026-04-26 03:53 33.61398 -86.66914 2082 ft 192 kts 237°
2026-04-26 03:53 33.60669 -86.68193 1764 ft 180 kts 238°
2026-04-26 03:53 33.59982 -86.69409 1486 ft 171 kts 237°
2026-04-26 03:54 33.59328 -86.70510 1380 ft 159 kts 235°
2026-04-26 03:54 33.58667 -86.71640 1274 ft 170 kts 235°
2026-04-26 03:54 33.58007 -86.72769 1031 ft 165 kts 235°
2026-04-26 03:54 33.57358 -86.73900 751 ft 163 kts 236°
2026-04-26 03:55 33.56769 -86.74941 677 ft 136 kts 234°
2026-04-26 03:55 33.56210 -86.75889 676 ft 164 kts 235°
2026-04-26 03:55 33.55509 -86.77151 1250 ft 187 kts 238°
2026-04-26 03:55 33.54773 -86.78516 2056 ft 205 kts 239°
2026-04-26 03:56 33.53964 -86.80018 2758 ft 230 kts 240°
2026-04-26 03:56 33.53579 -86.81223 3070 ft 237 kts 263°
2026-04-26 03:56 33.53804 -86.83260 3380 ft 269 kts 296°
2026-04-26 03:56 33.55044 -86.85102 3618 ft 300 kts 319°
2026-04-26 03:57 33.56844 -86.86562 3898 ft 325 kts 334°
2026-04-26 03:57 33.59608 -86.87965 3797 ft 326 kts 339°
2026-04-26 03:57 33.61051 -86.88609 3877 ft 324 kts 341°
2026-04-26 03:57 33.63178 -86.89509 3897 ft 325 kts 341°
2026-04-26 03:58 33.65324 -86.90365 3943 ft 325 kts 345°
2026-04-26 03:58 33.67574 -86.90402 3689 ft 333 kts 17°
2026-04-26 03:58 33.69368 -86.88673 3369 ft 344 kts 59°
2026-04-26 03:58 33.69870 -86.85916 3293 ft 333 kts 96°
2026-04-26 03:59 33.69471 -86.83445 3771 ft 281 kts 101°
2026-04-26 03:59 33.69051 -86.81252 3615 ft 258 kts 102°
2026-04-26 03:59 33.68615 -86.79249 3479 ft 236 kts 104°
2026-04-26 03:59 33.68172 -86.77418 3253 ft 223 kts 106°
2026-04-26 04:00 33.67713 -86.75704 3189 ft 209 kts 107°
2026-04-26 04:00 33.67253 -86.74119 3157 ft 190 kts 108°
2026-04-26 04:00 33.66820 -86.72688 3092 ft 174 kts 109°
2026-04-26 04:00 33.66367 -86.71329 3162 ft 177 kts 110°
2026-04-26 04:01 33.65920 -86.69961 3301 ft 179 kts 110°
2026-04-26 04:01 33.65447 -86.68534 3318 ft 186 kts 111°
2026-04-26 04:01 33.64921 -86.67060 3198 ft 193 kts 113°
2026-04-26 04:01 33.64302 -86.65663 3117 ft 188 kts 125°
2026-04-26 04:02 33.63182 -86.64949 2738 ft 196 kts 188°
2026-04-26 04:02 33.62150 -86.65837 2632 ft 185 kts 232°
2026-04-26 04:02 33.61391 -86.67030 2355 ft 177 kts 235°
2026-04-26 04:02 33.60683 -86.68214 2043 ft 172 kts 237°
2026-04-26 04:03 33.59998 -86.69370 1770 ft 167 kts 237°
2026-04-26 04:03 33.59343 -86.70517 1494 ft 164 kts 237°
2026-04-26 04:03 33.58689 -86.71628 1254 ft 160 kts 237°
2026-04-26 04:03 33.58052 -86.72710 1032 ft 158 kts 237°
2026-04-26 04:04 33.57423 -86.73775 772 ft 160 kts 237°
2026-04-26 04:04 33.56828 -86.74825 673 ft 135 kts 233°
2026-04-26 04:04 33.56381 -86.75596 678 ft 71 kts 235°
2026-04-26 04:04 33.56251 -86.75806 674 ft 19 kts 213°
2026-04-26 04:05 33.56141 -86.75872 672 ft 8 kts 207°
2026-04-26 04:05 33.56118 -86.75865 673 ft 6 kts 116°
2026-04-26 04:05 33.56139 -86.75811 675 ft 8 kts 61°
2026-04-26 04:05 33.56168 -86.75757 673 ft 8 kts 56°
2026-04-26 04:06 33.56201 -86.75701 678 ft 9 kts 54°
2026-04-26 04:06 33.56239 -86.75637 673 ft 10 kts 54°
2026-04-26 04:06 33.56281 -86.75563 672 ft 11 kts 56°
2026-04-26 04:06 33.56326 -86.75485 676 ft 12 kts 54°
2026-04-26 04:07 33.56394 -86.75366 674 ft 23 kts 55°
2026-04-26 04:07 33.56486 -86.75209 675 ft 23 kts 55°
2026-04-26 04:07 33.56556 -86.75085 675 ft 13 kts 55°
2026-04-26 04:07 33.56598 -86.75015 673 ft 9 kts 40°
2026-04-26 04:08 33.56645 -86.75026 673 ft 8 kts 320°
2026-04-26 04:08 33.56690 -86.75072 675 ft 8 kts 319°
2026-04-26 04:08 33.56732 -86.75119 674 ft 9 kts 314°
2026-04-26 04:08 33.56778 -86.75176 675 ft 10 kts 314°
2026-04-26 04:09 33.56822 -86.75241 671 ft 9 kts 283°
2026-04-26 04:09 33.56801 -86.75294 673 ft 8 kts 233°
2026-04-26 04:09 33.56767 -86.75353 674 ft 9 kts 235°
2026-04-26 04:09 33.56733 -86.75412 673 ft 0 kts 236°
2026-04-26 04:10 33.56729 -86.75426 672 ft 3 kts 269°
2026-04-26 04:10 33.56747 -86.75450 673 ft 4 kts 329°
2026-04-26 04:10 33.56765 -86.75465 673 ft 1 kts 326°
2026-04-26 04:10 33.56766 -86.75465 673 ft 0 kts 326°